• In Uzbekistan
  • List of Countries
  • For 7 days
  • Water Temperature
  • Satellite Maps
  • Weather Map
  • Weather Widgets
  • user-avatar
    Login

    Hourly Weather Balho

    Today, 17 November, Friday

    Time Temperature Precipitation Wind Pressure Humidity
    00:00 +29°C° 0 mm 4 mps 737 mmHg 42%
    01:00 +28°C° 0 mm 4 mps 737 mmHg 45%
    02:00 +28°C° 0 mm 3 mps 737 mmHg 47%
    03:00 +27°C° 0 mm 3 mps 737 mmHg 50%
    04:00 +27°C° 0 mm 3 mps 737 mmHg 52%
    05:00 +26°C° 0 mm 3 mps 737 mmHg 55%
    06:00 +26°C° 0 mm 3 mps 738 mmHg 57%
    07:00 +27°C° 0 mm 3 mps 738 mmHg 52%
    08:00 +28°C° 0 mm 4 mps 738 mmHg 46%
    09:00 +30°C° 0 mm 5 mps 739 mmHg 42%
    10:00 +32°C° 0 mm 5 mps 738 mmHg 37%
    11:00 +34°C° 0 mm 5 mps 738 mmHg 32%
    12:00 +35°C° 0 mm 5 mps 738 mmHg 27%
    13:00 +35°C° 0 mm 5 mps 737 mmHg 26%
    14:00 +36°C° 0 mm 5 mps 736 mmHg 25%
    15:00 +36°C° 0 mm 6 mps 736 mmHg 24%
    16:00 +35°C° 0 mm 6 mps 736 mmHg 26%
    17:00 +34°C° 0 mm 6 mps 736 mmHg 29%
    18:00 +33°C° 0 mm 6 mps 736 mmHg 32%
    19:00 +32°C° 0 mm 6 mps 736 mmHg 35%
    20:00 +30°C° 0 mm 6 mps 737 mmHg 37%
    21:00 +30°C° 0 mm 5 mps 737 mmHg 40%
    22:00 +29°C° 0 mm 5 mps 737 mmHg 43%
    23:00 +28°C° 0 mm 5 mps 737 mmHg 45%

    Tomorrow, 18 November, Saturday

    Time Temperature Precipitation Wind Pressure Humidity
    00:00 +28°C° 0 mm 4 mps 737 mmHg 48%
    01:00 +27°C° 0 mm 4 mps 737 mmHg 51%
    02:00 +27°C° 0 mm 4 mps 737 mmHg 54%
    03:00 +26°C° 0 mm 3 mps 737 mmHg 58%
    04:00 +26°C° 0 mm 3 mps 737 mmHg 61%
    05:00 +26°C° 0 mm 3 mps 737 mmHg 64%
    06:00 +25°C° 0 mm 3 mps 737 mmHg 67%
    07:00 +27°C° 0 mm 4 mps 738 mmHg 61%
    08:00 +28°C° 0 mm 4 mps 738 mmHg 55%
    09:00 +29°C° 0 mm 5 mps 739 mmHg 50%
    10:00 +32°C° 0 mm 5 mps 739 mmHg 43%
    11:00 +33°C° 0 mm 6 mps 738 mmHg 37%
    12:00 +35°C° 0 mm 6 mps 738 mmHg 31%
    13:00 +35°C° 0 mm 6 mps 738 mmHg 30%
    14:00 +35°C° 0 mm 6 mps 737 mmHg 28%
    15:00 +36°C° 0 mm 6 mps 736 mmHg 27%
    16:00 +34°C° 0 mm 6 mps 737 mmHg 31%
    17:00 +33°C° 0 mm 7 mps 737 mmHg 35%
    18:00 +32°C° 0 mm 7 mps 737 mmHg 38%
    19:00 +30°C° 0 mm 7 mps 737 mmHg 42%
    20:00 +30°C° 0 mm 6 mps 738 mmHg 45%
    21:00 +29°C° 0 mm 6 mps 738 mmHg 49%
    22:00 +28°C° 0 mm 6 mps 738 mmHg 51%
    23:00 +28°C° 0 mm 5 mps 738 mmHg 53%

    Day after tomorrow, 19 November, Sunday

    Time Temperature Precipitation Wind Pressure Humidity
    00:00 +27°C° 0 mm 5 mps 738 mmHg 56%
    01:00 +27°C° 0 mm 5 mps 738 mmHg 59%
    02:00 +27°C° 0 mm 4 mps 738 mmHg 61%
    03:00 +26°C° 0 mm 4 mps 738 mmHg 64%
    04:00 +26°C° 0 mm 3 mps 738 mmHg 67%
    05:00 +26°C° 0 mm 3 mps 738 mmHg 69%
    06:00 +25°C° 0 mm 3 mps 738 mmHg 72%
    07:00 +27°C° 0 mm 3 mps 739 mmHg 65%
    08:00 +28°C° 0 mm 4 mps 739 mmHg 59%
    09:00 +29°C° 0 mm 5 mps 740 mmHg 52%
    10:00 +30°C° 0 mm 5 mps 740 mmHg 47%
    11:00 +33°C° 0 mm 6 mps 739 mmHg 41%
    12:00 +34°C° 0 mm 6 mps 739 mmHg 36%
    13:00 +34°C° 0 mm 6 mps 738 mmHg 36%
    14:00 +35°C° 0 mm 7 mps 737 mmHg 36%
    15:00 +35°C° 0 mm 7 mps 737 mmHg 37%
    16:00 +34°C° 0 mm 7 mps 737 mmHg 41%
    17:00 +33°C° 0 mm 7 mps 737 mmHg 44%
    18:00 +32°C° 0 mm 7 mps 737 mmHg 48%
    19:00 +30°C° 0 mm 6 mps 737 mmHg 51%
    20:00 +29°C° 0 mm 6 mps 738 mmHg 55%
    21:00 +29°C° 0 mm 6 mps 739 mmHg 58%
    22:00 +28°C° 0 mm 6 mps 738 mmHg 60%
    23:00 +28°C° 0 mm 5 mps 738 mmHg 62%

    20 November, Monday

    Time Temperature Precipitation Wind Pressure Humidity
    00:00 +28°C° 0 mm 5 mps 738 mmHg 64%
    01:00 +27°C° 0 mm 5 mps 738 mmHg 66%
    02:00 +27°C° 0 mm 4 mps 737 mmHg 68%
    03:00 +27°C° 0 mm 4 mps 737 mmHg 70%
    04:00 +26°C° 0 mm 4 mps 737 mmHg 71%
    05:00 +26°C° 0 mm 3 mps 738 mmHg 73%
    06:00 +26°C° 0 mm 3 mps 738 mmHg 74%
    07:00 +27°C° 0 mm 4 mps 738 mmHg 69%
    08:00 +28°C° 0 mm 4 mps 739 mmHg 63%
    09:00 +29°C° 0 mm 5 mps 740 mmHg 57%
    10:00 +32°C° 0 mm 5 mps 739 mmHg 50%
    11:00 +33°C° 0 mm 5 mps 739 mmHg 44%
    12:00 +34°C° 0 mm 6 mps 738 mmHg 37%
    13:00 +35°C° 0 mm 6 mps 737 mmHg 36%
    14:00 +35°C° 0 mm 6 mps 736 mmHg 35%
    15:00 +35°C° 0 mm 6 mps 736 mmHg 34%
    16:00 +34°C° 0 mm 6 mps 736 mmHg 39%
    17:00 +33°C° 0 mm 6 mps 736 mmHg 45%
    18:00 +32°C° 0 mm 7 mps 736 mmHg 50%
    19:00 +30°C° 0 mm 7 mps 737 mmHg 54%
    20:00 +30°C° 0 mm 6 mps 737 mmHg 58%
    21:00 +29°C° 0 mm 6 mps 738 mmHg 62%
    22:00 +28°C° 0 mm 6 mps 738 mmHg 64%
    23:00 +28°C° 0 mm 5 mps 737 mmHg 66%

    21 November, Tuesday

    Time Temperature Precipitation Wind Pressure Humidity
    00:00 +28°C° 0 mm 5 mps 737 mmHg 68%
    01:00 +27°C° 0 mm 5 mps 737 mmHg 69%
    02:00 +27°C° 0 mm 5 mps 736 mmHg 71%
    03:00 +27°C° 0 mm 4 mps 736 mmHg 73%
    04:00 +27°C° 0 mm 4 mps 736 mmHg 74%
    05:00 +26°C° 0 mm 4 mps 736 mmHg 75%
    06:00 +26°C° 0 mm 3 mps 737 mmHg 76%
    07:00 +27°C° 0 mm 4 mps 737 mmHg 70%
    08:00 +28°C° 0 mm 4 mps 738 mmHg 64%
    09:00 +30°C° 0 mm 5 mps 738 mmHg 58%
    10:00 +32°C° 0 mm 5 mps 737 mmHg 52%
    11:00 +33°C° 0 mm 5 mps 737 mmHg 46%
    12:00 +34°C° 0 mm 5 mps 736 mmHg 40%
    13:00 +35°C° 0 mm 5 mps 735 mmHg 39%
    14:00 +35°C° 0 mm 5 mps 735 mmHg 38%
    15:00 +35°C° 0 mm 5 mps 734 mmHg 36%
    16:00 +34°C° 0 mm 5 mps 734 mmHg 41%
    17:00 +33°C° 0 mm 6 mps 734 mmHg 45%
    18:00 +32°C° 0 mm 6 mps 734 mmHg 49%
    19:00 +32°C° 0 mm 6 mps 735 mmHg 53%
    20:00 +30°C° 0 mm 6 mps 735 mmHg 57%
    21:00 +29°C° 0 mm 5 mps 736 mmHg 61%
    22:00 +29°C° 0 mm 5 mps 736 mmHg 62%
    23:00 +28°C° 0 mm 5 mps 735 mmHg 64%

    22 November, Wednesday

    Time Temperature Precipitation Wind Pressure Humidity
    00:00 +28°C° 0 mm 4 mps 735 mmHg 65%
    01:00 +27°C° 0 mm 4 mps 735 mmHg 67%
    02:00 +27°C° 0 mm 4 mps 735 mmHg 69%
    03:00 +27°C° 0 mm 4 mps 734 mmHg 71%
    04:00 +26°C° 0 mm 4 mps 735 mmHg 73%
    05:00 +26°C° 0 mm 3 mps 735 mmHg 74%
    06:00 +26°C° 0 mm 3 mps 735 mmHg 76%
    07:00 +27°C° 0 mm 4 mps 736 mmHg 68%
    08:00 +28°C° 0 mm 4 mps 737 mmHg 60%
    09:00 +29°C° 0 mm 4 mps 737 mmHg 52%
    10:00 +32°C° 0 mm 4 mps 736 mmHg 45%
    11:00 +34°C° 0 mm 4 mps 736 mmHg 38%
    12:00 +35°C° 0 mm 4 mps 735 mmHg 31%
    13:00 +35°C° 0 mm 4 mps 735 mmHg 31%
    14:00 +36°C° 0 mm 4 mps 734 mmHg 31%
    15:00 +36°C° 0 mm 4 mps 733 mmHg 30%
    16:00 +35°C° 0 mm 4 mps 734 mmHg 35%
    17:00 +35°C° 0 mm 4 mps 734 mmHg 40%
    18:00 +34°C° 0 mm 5 mps 734 mmHg 45%
    19:00 +33°C° 0 mm 5 mps 735 mmHg 50%
    20:00 +32°C° 0 mm 4 mps 735 mmHg 56%
    21:00 +30°C° 0 mm 4 mps 736 mmHg 62%
    22:00 +29°C° 0 mm 4 mps 735 mmHg 64%
    23:00 +29°C° 0 mm 4 mps 735 mmHg 66%
    Show more